Retour au catalogue

GEESAT 5-08

ActifCommunicationsLEO
NORAD 65557·PAYLOAD·🇨🇳 China

Lancé Sep 8, 2025 depuis Yellow Sea Launch Area

Loading…

Prochains Passages (prochaines 24 heures)

TLE

FraisSource: Space-Track

Époque: Sep 13, 2026, 15:10 UTC

1 65557U 25201H   26256.63243022  .00001175  00000-0  16521-3 0  9993
2 65557  49.9785 347.7925 0007717 248.0963 111.9156 14.84373874 54959

Suivez GEESAT 5-08 en temps réel avec AllMySat

Download on the App Store